This is the latest recevied weather packets stored in our database for station/object K9ABJ. If no packets are shown the sender has not sent any weather packets the latest 10 day(s).
| Time | Temp. | Humidity | Pressure | Rain* | Wind** | Luminosity | Snow |
|---|---|---|---|---|---|---|---|
| 1787839042 | 23.89° C | 80% | 1014.9 hPa | 0 mm | - | 208 W/m² | - |
| 1787838741 | 25° C | 79% | 1014.6 hPa | 0 mm | - | 251 W/m² | - |
| 1787838440 | 25° C | 80% | 1014.6 hPa | 0 mm | - | 338 W/m² | - |
| 1787838140 | 25° C | 81% | 1014.6 hPa | 0 mm | - | 338 W/m² | - |
| 1787837835 | 24.44° C | 84% | 1015.1 hPa | 0 mm | - | 218 W/m² | - |
| 1787837529 | 23.33° C | 85% | 1014.8 hPa | 0 mm | - | 218 W/m² | - |
| 1787837229 | 22.78° C | 85% | 1014.7 hPa | 0 mm | - | 241 W/m² | - |
| 1787836928 | 22.78° C | 89% | 1014.7 hPa | 0 mm | - | 155 W/m² | - |
| 1787836623 | 22.78° C | 86% | 1014.7 hPa | 0 mm | - | 153 W/m² | - |
| 1787836323 | 22.78° C | 90% | 1014.5 hPa | 0 mm | - | 148 W/m² | - |
| 1787836019 | 21.11° C | 93% | 1014.5 hPa | 0 mm | - | 164 W/m² | - |
| 1787835714 | 20.56° C | 94% | 1014.5 hPa | 0 mm | - | 181 W/m² | - |
| 1787835409 | 20.56° C | 95% | 1014.4 hPa | 0 mm | - | 136 W/m² | - |
| 1787835104 | 20.56° C | 95% | 1014.5 hPa | 0 mm | - | 126 W/m² | - |
| 1787834803 | 20.56° C | 96% | 1014.5 hPa | 0 mm | - | 120 W/m² | - |
| 1787834498 | 20.56° C | 96% | 1014.4 hPa | 0 mm | - | 119 W/m² | - |
| 1787834194 | 20° C | 96% | 1014.5 hPa | 0 mm | - | 120 W/m² | - |
| 1787833890 | 20° C | 96% | 1014.3 hPa | 0 mm | - | 108 W/m² | - |
| 1787833589 | 19.44° C | 96% | 1014.2 hPa | 0 mm | - | 94 W/m² | - |
| 1787833285 | 19.44° C | 96% | 1014.3 hPa | 0 mm | - | 83 W/m² | - |
| 1787832981 | 18.89° C | 96% | 1014.1 hPa | 0 mm | - | 81 W/m² | - |
| 1787832677 | 19.44° C | 96% | 1014.1 hPa | 0 mm | - | 67 W/m² | - |
| 1787832376 | 18.89° C | 96% | 1014.2 hPa | 0 mm | - | 59 W/m² | - |
| 1787832070 | 18.33° C | 96% | 1014.4 hPa | 0 mm | - | 55 W/m² | - |
| 1787831769 | 18.33° C | 96% | 1014.2 hPa | 0 mm | - | 46 W/m² | - |
* Rain latest hour (hover to see other rain measurements)
** Current wind speed in m/s (hover to see current wind gust speed)